Grand Junction, CO

1:34 PM MDT on October 18, 2019 (GMT -0600)
Walker

Weather History for KGJT - March, 2019

Change the Weather History Date:

Friday, March 29, 2019

  Actual Average Record
Temperature  
Mean Temperature 43 °F 47 °F  
Max Temperature 53 °F 60 °F 77 °F (1986)
Min Temperature 33 °F 34 °F 14 °F (1977)
Degree Days  
Heating Degree Days 22 18  
Month to date heating degree days 610 617  
Since 1 July heating degree days 5065 4996  
Cooling Degree Days 0 0  
Month to date cooling degree days 0 0  
Year to date cooling degree days 0 0  
Moisture  
Dew Point 26 °F    
Average Humidity 57    
Maximum Humidity 89    
Minimum Humidity 24    
Precipitation  
Precipitation 0.01 in 0.03 in 0.60 in (1990)
Month to date precipitation 2.29 0.85  
Year to date precipitation 3.73 1.97  
Snow  
Snow 0.00 in 0.00 in 4.00 in (1949)
Month to date snowfall 0.0 2.4  
Since 1 July snowfall 17.4 17.9  
Snow Depth 0.00 in    
Sea Level Pressure  
Sea Level Pressure 29.96 in    
Wind  
Wind Speed 11 mph (NW)    
Max Wind Speed 31 mph    
Max Gust Speed 37 mph    
Visibility 10 miles    
Events Rain    
T = Trace of Precipitation, MM = Missing Value Source: NWS Daily Summary

Daily Weather History Graph

Daily Weather History Graph

Search for Another Location

Airport or City:

Astronomy

Mar. 29, 2019 Rise Set
Actual Time 7:03 AM MDT 7:34 PM MDT
Civil Twilight 6:36 AM MDT 8:01 PM MDT
Nautical Twilight 6:05 AM MDT 8:33 PM MDT
Astronomical Twilight 5:32 AM MDT 9:05 PM MDT
Moon 3:37 AM MDT (3/29) 1:28 PM MDT (3/29)
Length of Visible Light 13h 24m
Length of Day
12h 31m
Waning Crescent, 35% of the Moon is Illuminated
Mar 29
Waning Crescent
Apr 5
New
Apr 12
First Quarter
Apr 19
Full
Apr 26
Last Quarter

Hourly Weather History & Observations

Time (MDT) Temp. Windchill Dew Point Humidity Pressure Visibility Wind Dir Wind Speed Gust Speed Precip Events Conditions
12:53 AM 43.0 °F 40.3 °F 26.1 °F 51% 29.75 in 10.0 mi ENE 4.6 mph - N/A   Clear
1:53 AM 48.0 °F - 24.1 °F 39% 29.74 in 10.0 mi North 12.7 mph - N/A   Clear
2:53 AM 51.1 °F - 16.0 °F 25% 29.76 in 10.0 mi NW 9.2 mph 19.6 mph N/A   Clear
3:53 AM 50.0 °F - 15.1 °F 25% 29.78 in 10.0 mi NNW 4.6 mph - N/A   Clear
4:53 AM 48.0 °F - 21.9 °F 36% 29.81 in 10.0 mi SW 10.4 mph 19.6 mph N/A   Clear
5:53 AM 46.9 °F - 25.0 °F 42% 29.82 in 10.0 mi West 19.6 mph 34.5 mph N/A   Clear
6:53 AM 43.0 °F 39.5 °F 24.1 °F 47% 29.86 in 10.0 mi WNW 5.8 mph - N/A   Clear
7:53 AM 44.1 °F 40.8 °F 24.1 °F 45% 29.88 in 10.0 mi NNE 5.8 mph - N/A   Overcast
8:53 AM 46.0 °F 39.3 °F 27.0 °F 47% 29.91 in 10.0 mi North 16.1 mph - N/A   Partly Cloudy
9:53 AM 48.0 °F - 24.1 °F 39% 29.95 in 10.0 mi West 20.7 mph 29.9 mph N/A   Clear
10:53 AM 48.0 °F - 24.1 °F 39% 29.97 in 10.0 mi West 19.6 mph 25.3 mph N/A   Clear
11:53 AM 50.0 °F - 19.9 °F 31% 29.94 in 10.0 mi West 11.5 mph 21.9 mph N/A   Clear
12:53 PM 51.1 °F - 21.9 °F 32% 29.95 in 10.0 mi NW 20.7 mph 29.9 mph N/A   Scattered Clouds
1:53 PM 45.0 °F 37.4 °F 28.0 °F 52% 29.96 in 10.0 mi North 18.4 mph - 0.01 in Rain Light Rain
2:46 PM 43.0 °F 36.8 °F 30.0 °F 60% 30.05 in 9.0 mi West 11.5 mph 29.9 mph 0.00 in Rain Light Rain
2:53 PM 44.1 °F 38.6 °F 28.0 °F 53% 29.98 in 10.0 mi WSW 10.4 mph - 0.00 in Rain Light Rain
3:53 PM 52.0 °F - 25.0 °F 35% 29.94 in 10.0 mi SW 12.7 mph 19.6 mph 0.00 in   Clear
4:53 PM 52.0 °F - 21.0 °F 30% 29.95 in 10.0 mi West 16.1 mph - N/A   Scattered Clouds
5:32 PM 45.0 °F 36.4 °F 28.9 °F 53% 30.07 in 10.0 mi North 23.0 mph 34.5 mph 0.00 in Rain Light Rain
5:40 PM 43.0 °F 35.7 °F 28.9 °F 58% 30.08 in 10.0 mi North 15.0 mph 26.5 mph 0.00 in Rain Light Rain
5:53 PM 44.1 °F 39.5 °F 30.9 °F 60% 30.04 in 10.0 mi NNE 8.1 mph - 0.00 in Rain Light Rain
6:53 PM 44.1 °F - 28.0 °F 53% 30.06 in 10.0 mi Calm Calm - 0.00 in   Mostly Cloudy
7:53 PM 39.9 °F 32.5 °F 30.9 °F 70% 30.10 in 10.0 mi ENE 12.7 mph - N/A   Mostly Cloudy
8:53 PM 41.0 °F 37.1 °F 30.9 °F 67% 30.12 in 10.0 mi Variable 5.8 mph - 0.00 in   Overcast
9:53 PM 39.0 °F 34.8 °F 30.9 °F 73% 30.14 in 10.0 mi SW 5.8 mph - N/A   Clear
10:53 PM 34.0 °F 31.0 °F 30.9 °F 89% 30.17 in 10.0 mi NE 3.5 mph - N/A   Scattered Clouds